Morrisville, VT

5:33 AM EDT on April 20, 2018 (GMT -0400)
Morrisville Stowe State

Weather History for KMVL - November, 2011

Change the Weather History Date:

Thursday, November 10, 2011

  Actual Average Record
Temperature  
Mean Temperature 51 °F 37 °F  
Max Temperature 62 °F 46 °F 64 °F (2002)
Min Temperature 39 °F 28 °F 10 °F (2004)
Degree Days  
Heating Degree Days 14 28  
Month to date heating degree days 227 262  
Since 1 July heating degree days 897 1193  
Cooling Degree Days 0 0  
Month to date cooling degree days 0 0  
Year to date cooling degree days 337 265  
Moisture  
Dew Point 41 °F    
Average Humidity 76    
Maximum Humidity 92    
Minimum Humidity 59    
Precipitation  
Precipitation 0.04 in 0.10 in 0.53 in (2000)
Month to date precipitation 0.04 1.01  
Year to date precipitation 33.11 31.25  
Sea Level Pressure  
Sea Level Pressure 29.82 in    
Wind  
Wind Speed 5 mph (North)    
Max Wind Speed 15 mph    
Max Gust Speed 21 mph    
Visibility 10 miles    
Events Rain    
T = Trace of Precipitation, MM = Missing Value Source: NWS Daily Summary

Daily Weather History Graph

Daily Weather History Graph

Search for Another Location

Airport or City:

Astronomy

Nov. 10, 2011 Rise Set
Actual Time 6:39 AM EST 4:28 PM EST
Civil Twilight 6:08 AM EST 4:59 PM EST
Nautical Twilight 5:33 AM EST 5:34 PM EST
Astronomical Twilight 4:59 AM EST 6:08 PM EST
Moon 4:12 PM EST (11/10) 6:31 AM EST (11/10)
Length of Visible Light 10h 50m
Length of Day
9h 48m
Full, 100% of the Moon is Illuminated
Nov 10
Full
Nov 10
Full
Nov 18
Last Quarter
Nov 25
New
Dec 2
First Quarter

Hourly Weather History & Observations

Time (EST) Temp. Windchill Dew Point Humidity Pressure Visibility Wind Dir Wind Speed Gust Speed Precip Events Conditions
12:54 AM 52.0 °F - 39.9 °F 63% 29.95 in 10.0 mi South 4.6 mph - N/A   Clear
1:54 AM 46.9 °F - 39.9 °F 77% 29.96 in 10.0 mi SSE 4.6 mph - N/A   Clear
2:54 AM 43.0 °F - 37.9 °F 82% 29.96 in 10.0 mi Calm Calm - N/A   Clear
3:54 AM 39.9 °F - 37.0 °F 89% 29.94 in 10.0 mi Calm Calm - N/A   Clear
4:54 AM 42.1 °F - 37.9 °F 85% 29.93 in 10.0 mi Calm Calm - N/A   Partly Cloudy
5:54 AM 44.1 °F - 39.9 °F 85% 29.93 in 10.0 mi Calm Calm - N/A   Clear
6:54 AM 44.1 °F - 41.0 °F 89% 29.94 in 10.0 mi Calm Calm - N/A   Scattered Clouds
7:54 AM 46.9 °F - 43.0 °F 86% 29.94 in 10.0 mi Calm Calm - N/A   Partly Cloudy
8:54 AM 54.0 °F - 48.0 °F 80% 29.90 in 10.0 mi Calm Calm - N/A   Clear
9:54 AM 57.9 °F - 48.0 °F 70% 29.88 in 10.0 mi South 3.5 mph - N/A   Partly Cloudy
10:54 AM 61.0 °F - 46.9 °F 60% 29.86 in 10.0 mi South 10.4 mph - N/A   Mostly Cloudy
11:54 AM 61.0 °F - 48.0 °F 62% 29.83 in 10.0 mi South 4.6 mph - N/A   Overcast
12:54 PM 61.0 °F - 48.0 °F 62% 29.79 in 10.0 mi Calm Calm - N/A   Overcast
1:54 PM 60.1 °F - 48.0 °F 64% 29.76 in 10.0 mi Calm Calm - N/A   Overcast
2:54 PM 54.0 °F - 46.9 °F 77% 29.76 in 10.0 mi NNE 9.2 mph - N/A   Overcast
4:54 PM 45.0 °F 39.7 °F 41.0 °F 86% 29.78 in 10.0 mi North 10.4 mph - N/A   Overcast
5:36 PM 44.6 °F 38.8 °F 39.2 °F 81% 29.77 in 10.0 mi North 11.5 mph - N/A   Overcast
5:54 PM 45.0 °F 40.6 °F 39.9 °F 82% 29.79 in 10.0 mi North 8.1 mph 18.4 mph N/A   Overcast
6:54 PM 45.0 °F 39.3 °F 39.0 °F 80% 29.77 in 10.0 mi NNW 11.5 mph 18.4 mph N/A   Overcast
7:36 PM 44.6 °F 40.2 °F 39.2 °F 81% 29.74 in 10.0 mi North 8.1 mph - N/A   Overcast
7:54 PM 43.0 °F 37.7 °F 39.0 °F 86% 29.75 in 10.0 mi North 9.2 mph - N/A   Overcast
8:16 PM 42.8 °F 38.0 °F 37.4 °F 81% 29.74 in 10.0 mi North 8.1 mph 18.4 mph N/A   Overcast
8:54 PM 42.1 °F 35.2 °F 37.0 °F 82% 29.74 in 10.0 mi North 12.7 mph 20.7 mph N/A   Overcast
9:54 PM 42.1 °F 38.4 °F 36.0 °F 79% 29.74 in 10.0 mi North 5.8 mph - 0.00 in Rain Light Rain
10:07 PM 41.0 °F 37.1 °F 35.6 °F 81% 29.72 in 10.0 mi North 5.8 mph - 0.01 in Rain Rain
10:54 PM 39.0 °F 34.8 °F 36.0 °F 89% 29.72 in 10.0 mi NNE 5.8 mph - 0.04 in Rain Light Rain
11:54 PM 39.0 °F 33.4 °F 36.0 °F 89% 29.68 in 10.0 mi NNE 8.1 mph - 0.00 in   Overcast